星链-2427 (STARLINK-2427 )

导读

STARLINK-2427是美国太空探索技术公司星链计划中的卫星,于2021年3月11日发射,属于星链星座组网卫星。星链计划旨在构建全球卫星互联网星座,该卫星承担着为全球偏远地区等提供互联网接入服务的任务,运行于近地轨道,是星链大规模组网进程中的组成单元。

Basic Information
目录编号:
47837
目录名称:
STARLINK-2427
国际标识:
2021-018BC
轨道中心:
EARTH
卫星名称:
星链-2427
卫星全名:
星链-2427 (STARLINK-2427 )
卫星状态:
在轨 (已飞行2003 天)
发射日期:
2021-03-11 UTC
国别 :
美国 (US)
星等 :
--
Orbit Information
数据来源 国际轨道数据 AOE轨道数据
星历时间 2026-09-04T00:18:20+0800
13小时前
查看轨道信息
2026-09-03T23:00:00+0800
14小时前
查看轨道信息
半长轴 6847.13km 6847.158km
偏心率 0.0001118 0.0000737
轨道倾角 53.158° 53.158°
近地点辐角 137.179° 103.702°
升交点赤经 130.704° 130.961°
平近点角 222.930° 316.155°
近地点 468.227km 468.516km
远地点 469.759km 469.526km
周期 93.977分钟 93.978分钟
每日圈数 15.322865 15.322769
Detailed Information
固有亮度:
5
最大亮度:
2.5
卫星平台:
Starlink V1.0
覆盖范围:
全球
运营商:
太空探索技术公司
运营商所在国:
美国
制造商(研发单位):
太空探索技术公司
制造商所在国:
美国
使用方式:
暂无
Satellite Introduction
星链(Starlink)计划是由太空探索技术公司(SpaceX)提出的一个巨型低轨卫星互联网星座项目,计划在2019年至2024年间在太空搭建由约1.2万颗卫星组成的“星链”网络,其中1584颗将部署在地球上空550千米处的近地轨道,并从2020年开始工作。该卫星仍在工作。
2D Orbit Map
3D Orbit Map
Orbit Altitude Analysis Chart
Orbit Inclination Analysis Chart
Orbit Comprehensive Analysis Chart
View Comprehensive Chart
Conjunction Data List
Event ID Objects TCA Miss Dist (km) Collision Risk Probability Collision Risk Index (CRI) Action
CDM_260905-050704-783706-758521
2026-09-05T
05:07:11+0000
0.956 km
远距离
3.163558E-5 中风险 0.65
CDM_260905-055104-783705-901621
2026-09-05T
05:51:05+0000
1.595 km
极远距离
4.831209E-6 低风险 0.49
CDM_260905-042004-783706-758521
2026-09-05T
04:20:12+0000
2.089 km
极远距离
2.56229E-6 低风险 0.43
CDM_260905-024004-783706-528121
2026-09-05T
02:40:35+0000
2.134 km
极远距离
2.432495E-6 低风险 0.43
CDM_260903-235604-783706-882221
2026-09-03T
23:56:08+0000
1.862 km
极远距离
2.172473E-6 低风险 0.42
CDM_260904-021704-783706-882222
2026-09-04T
02:17:07+0000
1.871 km
极远距离
2.140854E-6 低风险 0.42
CDM_260905-154604-783705-306021
2026-09-05T
15:46:14+0000
2.179 km
极远距离
1.6815E-6 低风险 0.4
CDM_260904-141204-783705-283421
2026-09-04T
14:12:26+0000
2.613 km
极远距离
1.453691E-6 低风险 0.38
CDM_260904-101704-783705-283421
2026-09-04T
10:17:35+0000
2.956 km
极远距离
1.222113E-6 低风险 0.37
CDM_260905-134004-783706-518921
2026-09-05T
13:40:26+0000
2.637 km
极远距离
9.316537E-7 极低风险 0.34